Epoch 2020 Apr. 21.0 TT = JDT 2458960.5 T 2020 Apr. 5.28177 TT Rudenko q 2.2453222 (2000.0) P Q n 0.13067923 Peri. 58.85159 +0.74597691 +0.65063838 a 3.8459031 Node 260.15551 -0.64952611 +0.66368394 e 0.4161782 Incl. 8.29144 -0.14708597 +0.36904379 P 7.54 From 129 observations 2005 Oct. 7-2020 Nov. 14, mean residual 0".8.
m1 = 15.0 + 5 logΔ + 10.0 log r